Time,TemperatureF,DewpointF,PressureIn,WindDirection,WindDirectionDegrees,WindSpeedMPH,WindSpeedGustMPH,Humidity,HourlyPrecipIn,Conditions,Clouds,dailyrainin,SoftwareType,DateUTC
2013-04-03 00:03:00,36.3,19.0,0.00,North,0,0.0,0.0,49,0.00,,,0.00,WUHU21623XXSP,2013-04-03 04:03:00,
2013-04-03 00:08:00,36.1,18.8,0.00,North,0,0.0,0.0,49,0.00,,,0.00,WUHU21623XXSP,2013-04-03 04:08:00,
2013-04-03 00:13:00,36.0,18.7,0.00,North,0,0.0,0.0,49,0.00,,,0.00,WUHU21623XXSP,2013-04-03 04:13:00,
2013-04-03 00:18:00,35.8,18.5,0.00,North,0,0.0,0.0,49,0.00,,,0.00,WUHU21623XXSP,2013-04-03 04:18:00,
2013-04-03 00:23:00,35.4,18.2,0.00,North,0,0.0,0.0,49,0.00,,,0.00,WUHU21623XXSP,2013-04-03 04:23:00,
2013-04-03 00:28:00,35.4,18.2,0.00,North,0,0.0,0.0,49,0.00,,,0.00,WUHU21623XXSP,2013-04-03 04:28:00,
2013-04-03 00:33:00,35.2,18.5,0.00,North,0,0.0,0.0,50,0.00,,,0.00,WUHU21623XXSP,2013-04-03 04:33:00,
2013-04-03 00:38:00,35.1,18.3,0.00,North,0,0.0,0.0,50,0.00,,,0.00,WUHU21623XXSP,2013-04-03 04:38:00,
2013-04-03 00:44:00,34.9,18.6,0.00,North,0,0.0,0.0,51,0.00,,,0.00,WUHU21623XXSP,2013-04-03 04:44:00,
2013-04-03 00:49:00,34.7,18.4,0.00,North,0,0.0,0.0,51,0.00,,,0.00,WUHU21623XXSP,2013-04-03 04:49:00,
2013-04-03 00:54:00,34.3,18.0,0.00,North,0,0.0,0.0,51,0.00,,,0.00,WUHU21623XXSP,2013-04-03 04:54:00,
2013-04-03 00:59:00,34.3,18.0,0.00,North,0,0.0,0.0,51,0.00,,,0.00,WUHU21623XXSP,2013-04-03 04:59:00,
2013-04-03 01:04:00,34.3,18.0,0.00,North,0,0.0,0.0,51,0.00,,,0.00,WUHU21623XXSP,2013-04-03 05:04:00,
2013-04-03 01:09:00,34.3,18.0,0.00,North,0,0.0,0.0,51,0.00,,,0.00,WUHU21623XXSP,2013-04-03 05:09:00,
2013-04-03 01:14:00,34.2,18.3,0.00,North,0,0.0,0.0,52,0.00,,,0.00,WUHU21623XXSP,2013-04-03 05:14:00,
2013-04-03 01:19:00,34.0,18.1,0.00,North,0,0.0,0.0,52,0.00,,,0.00,WUHU21623XXSP,2013-04-03 05:19:00,
2013-04-03 01:24:00,34.0,18.1,0.00,North,0,0.0,0.0,52,0.00,,,0.00,WUHU21623XXSP,2013-04-03 05:24:00,
2013-04-03 01:29:00,34.0,18.1,0.00,North,0,0.0,0.0,52,0.00,,,0.00,WUHU21623XXSP,2013-04-03 05:29:00,
2013-04-03 01:34:00,33.8,17.9,0.00,North,0,0.0,0.0,52,0.00,,,0.00,WUHU21623XXSP,2013-04-03 05:34:00,
2013-04-03 01:39:00,33.8,17.9,0.00,North,0,0.0,0.0,52,0.00,,,0.00,WUHU21623XXSP,2013-04-03 05:39:00,
2013-04-03 01:44:00,33.6,17.8,0.00,North,0,0.0,0.0,52,0.00,,,0.00,WUHU21623XXSP,2013-04-03 05:44:00,
2013-04-03 01:49:00,33.6,17.8,0.00,North,0,0.0,0.0,52,0.00,,,0.00,WUHU21623XXSP,2013-04-03 05:49:00,
2013-04-03 01:54:00,33.6,17.8,0.00,North,0,0.0,0.0,52,0.00,,,0.00,WUHU21623XXSP,2013-04-03 05:54:00,
2013-04-03 01:59:00,33.4,17.6,0.00,North,0,0.0,0.0,52,0.00,,,0.00,WUHU21623XXSP,2013-04-03 05:59:00,
2013-04-03 02:04:00,33.1,17.3,0.00,North,0,0.0,0.0,52,0.00,,,0.00,WUHU21623XXSP,2013-04-03 06:04:00,
2013-04-03 02:09:00,33.1,17.3,0.00,North,0,0.0,0.0,52,0.00,,,0.00,WUHU21623XXSP,2013-04-03 06:09:00,
2013-04-03 02:14:00,32.7,17.4,0.00,North,0,0.0,0.0,53,0.00,,,0.00,WUHU21623XXSP,2013-04-03 06:14:00,
2013-04-03 02:19:00,32.5,17.2,0.00,North,0,0.0,0.0,53,0.00,,,0.00,WUHU21623XXSP,2013-04-03 06:19:00,
2013-04-03 02:24:00,32.2,16.9,0.00,North,0,0.0,0.0,53,0.00,,,0.00,WUHU21623XXSP,2013-04-03 06:24:00,
2013-04-03 02:29:00,31.8,16.6,0.00,North,0,0.0,0.0,53,0.00,,,0.00,WUHU21623XXSP,2013-04-03 06:29:00,
2013-04-03 02:34:00,31.6,16.4,0.00,North,0,0.0,0.0,53,0.00,,,0.00,WUHU21623XXSP,2013-04-03 06:34:00,
2013-04-03 02:39:00,31.3,16.1,0.00,North,0,0.0,0.0,53,0.00,,,0.00,WUHU21623XXSP,2013-04-03 06:39:00,
2013-04-03 02:44:00,30.9,15.7,0.00,North,0,0.0,0.0,53,0.00,,,0.00,WUHU21623XXSP,2013-04-03 06:44:00,
2013-04-03 02:49:00,30.9,16.1,0.00,North,0,0.0,0.0,54,0.00,,,0.00,WUHU21623XXSP,2013-04-03 06:49:00,
2013-04-03 02:54:00,30.7,16.0,0.00,North,0,0.0,0.0,54,0.00,,,0.00,WUHU21623XXSP,2013-04-03 06:54:00,
2013-04-03 02:59:00,30.7,16.4,0.00,North,0,0.0,0.0,55,0.00,,,0.00,WUHU21623XXSP,2013-04-03 06:59:00,
2013-04-03 03:04:00,30.7,16.4,0.00,North,0,0.0,0.0,55,0.00,,,0.00,WUHU21623XXSP,2013-04-03 07:04:00,
2013-04-03 03:09:00,30.7,16.4,0.00,North,0,0.0,0.0,55,0.00,,,0.00,WUHU21623XXSP,2013-04-03 07:09:00,
2013-04-03 03:14:00,30.7,16.4,0.00,North,0,0.0,0.0,55,0.00,,,0.00,WUHU21623XXSP,2013-04-03 07:14:00,
2013-04-03 03:19:00,30.7,16.4,0.00,North,0,0.0,0.0,55,0.00,,,0.00,WUHU21623XXSP,2013-04-03 07:19:00,
2013-04-03 03:24:00,30.7,16.4,0.00,North,0,0.0,0.0,55,0.00,,,0.00,WUHU21623XXSP,2013-04-03 07:24:00,
2013-04-03 03:29:00,30.7,16.4,0.00,North,0,0.0,0.0,55,0.00,,,0.00,WUHU21623XXSP,2013-04-03 07:29:00,
2013-04-03 03:34:00,30.7,16.8,0.00,North,0,0.0,0.0,56,0.00,,,0.00,WUHU21623XXSP,2013-04-03 07:34:00,
2013-04-03 03:39:00,30.7,16.8,0.00,North,0,0.0,0.0,56,0.00,,,0.00,WUHU21623XXSP,2013-04-03 07:39:00,
2013-04-03 03:44:00,30.7,16.8,0.00,North,0,0.0,0.0,56,0.00,,,0.00,WUHU21623XXSP,2013-04-03 07:44:00,
2013-04-03 03:49:00,30.7,16.8,0.00,North,0,0.0,0.0,56,0.00,,,0.00,WUHU21623XXSP,2013-04-03 07:49:00,
2013-04-03 03:54:00,30.7,16.8,0.00,North,0,0.0,0.0,56,0.00,,,0.00,WUHU21623XXSP,2013-04-03 07:54:00,
2013-04-03 03:59:00,30.7,16.8,0.00,North,0,0.0,0.0,56,0.00,,,0.00,WUHU21623XXSP,2013-04-03 07:59:00,
2013-04-03 04:04:00,30.7,16.8,0.00,North,0,0.0,0.0,56,0.00,,,0.00,WUHU21623XXSP,2013-04-03 08:04:00,
2013-04-03 04:09:00,30.7,16.8,0.00,North,0,0.0,0.0,56,0.00,,,0.00,WUHU21623XXSP,2013-04-03 08:09:00,
2013-04-03 04:14:00,30.7,16.8,0.00,North,0,0.0,0.0,56,0.00,,,0.00,WUHU21623XXSP,2013-04-03 08:14:00,
2013-04-03 04:19:00,30.6,16.8,0.00,North,0,0.0,0.0,56,0.00,,,0.00,WUHU21623XXSP,2013-04-03 08:19:00,
2013-04-03 04:24:00,30.4,16.5,0.00,North,0,0.0,0.0,56,0.00,,,0.00,WUHU21623XXSP,2013-04-03 08:24:00,
2013-04-03 04:29:00,30.4,16.5,0.00,North,0,0.0,0.0,56,0.00,,,0.00,WUHU21623XXSP,2013-04-03 08:29:00,
2013-04-03 04:34:00,30.2,16.5,0.00,North,0,0.0,0.0,56,0.00,,,0.00,WUHU21623XXSP,2013-04-03 08:34:00,
2013-04-03 04:39:00,30.0,16.6,0.00,North,0,0.0,0.0,57,0.00,,,0.00,WUHU21623XXSP,2013-04-03 08:39:00,
2013-04-03 04:44:00,30.0,16.6,0.00,North,0,0.0,0.0,57,0.00,,,0.00,WUHU21623XXSP,2013-04-03 08:44:00,
2013-04-03 04:49:00,30.0,16.6,0.00,North,0,0.0,0.0,57,0.00,,,0.00,WUHU21623XXSP,2013-04-03 08:49:00,
2013-04-03 04:54:00,29.8,16.4,0.00,North,0,0.0,0.0,58,0.00,,,0.00,WUHU21623XXSP,2013-04-03 08:54:00,
2013-04-03 04:59:00,29.5,16.5,0.00,North,0,0.0,0.0,58,0.00,,,0.00,WUHU21623XXSP,2013-04-03 08:59:00,
2013-04-03 05:04:00,29.5,16.5,0.00,North,0,0.0,0.0,58,0.00,,,0.00,WUHU21623XXSP,2013-04-03 09:04:00,
2013-04-03 05:09:00,29.5,16.5,0.00,North,0,0.0,0.0,58,0.00,,,0.00,WUHU21623XXSP,2013-04-03 09:09:00,
2013-04-03 05:14:00,29.5,16.5,0.00,North,0,0.0,0.0,58,0.00,,,0.00,WUHU21623XXSP,2013-04-03 09:14:00,
2013-04-03 05:19:00,29.3,16.3,0.00,North,0,0.0,0.0,58,0.00,,,0.00,WUHU21623XXSP,2013-04-03 09:19:00,
2013-04-03 05:24:00,29.3,16.3,0.00,North,0,0.0,0.0,58,0.00,,,0.00,WUHU21623XXSP,2013-04-03 09:24:00,
2013-04-03 05:29:00,29.3,16.7,0.00,North,0,0.0,0.0,59,0.00,,,0.00,WUHU21623XXSP,2013-04-03 09:29:00,
2013-04-03 05:34:00,29.3,16.3,0.00,North,0,0.0,0.0,58,0.00,,,0.00,WUHU21623XXSP,2013-04-03 09:34:00,
2013-04-03 05:39:00,29.1,16.6,0.00,North,0,0.0,0.0,59,0.00,,,0.00,WUHU21623XXSP,2013-04-03 09:39:00,
2013-04-03 05:44:00,29.1,16.6,0.00,North,0,0.0,0.0,59,0.00,,,0.00,WUHU21623XXSP,2013-04-03 09:44:00,
2013-04-03 05:49:00,29.1,16.6,0.00,North,0,0.0,0.0,59,0.00,,,0.00,WUHU21623XXSP,2013-04-03 09:49:00,
2013-04-03 05:54:00,29.1,16.6,0.00,North,0,0.0,0.0,59,0.00,,,0.00,WUHU21623XXSP,2013-04-03 09:54:00,
2013-04-03 05:59:00,29.1,16.6,0.00,North,0,0.0,0.0,59,0.00,,,0.00,WUHU21623XXSP,2013-04-03 09:59:00,
2013-04-03 06:04:00,29.1,16.6,0.00,North,0,0.0,0.0,59,0.00,,,0.00,WUHU21623XXSP,2013-04-03 10:04:00,
2013-04-03 06:09:00,29.1,16.6,0.00,North,0,0.0,0.0,59,0.00,,,0.00,WUHU21623XXSP,2013-04-03 10:09:00,
2013-04-03 06:14:00,28.9,16.4,0.00,North,0,0.0,0.0,59,0.00,,,0.00,WUHU21623XXSP,2013-04-03 10:14:00,
2013-04-03 06:19:00,28.9,16.4,0.00,North,0,0.0,0.0,59,0.00,,,0.00,WUHU21623XXSP,2013-04-03 10:19:00,
2013-04-03 06:24:00,28.9,16.8,0.00,North,0,0.0,0.0,60,0.00,,,0.00,WUHU21623XXSP,2013-04-03 10:24:00,
2013-04-03 06:29:00,28.8,16.7,0.00,North,0,0.0,0.0,60,0.00,,,0.00,WUHU21623XXSP,2013-04-03 10:29:00,
2013-04-03 06:34:00,28.8,16.7,0.00,North,0,0.0,0.0,60,0.00,,,0.00,WUHU21623XXSP,2013-04-03 10:34:00,
2013-04-03 06:39:00,28.6,16.7,0.00,North,0,0.0,0.0,60,0.00,,,0.00,WUHU21623XXSP,2013-04-03 10:39:00,
2013-04-03 06:44:00,28.6,16.5,0.00,North,0,0.0,0.0,60,0.00,,,0.00,WUHU21623XXSP,2013-04-03 10:44:00,
2013-04-03 06:49:00,28.6,16.9,0.00,North,0,0.0,0.0,61,0.00,,,0.00,WUHU21623XXSP,2013-04-03 10:49:00,
2013-04-03 06:54:00,28.6,16.9,0.00,North,0,0.0,0.0,61,0.00,,,0.00,WUHU21623XXSP,2013-04-03 10:54:00,
2013-04-03 06:59:00,28.2,16.5,0.00,North,0,0.0,0.0,61,0.00,,,0.00,WUHU21623XXSP,2013-04-03 10:59:00,
2013-04-03 07:04:00,28.2,16.5,0.00,North,0,0.0,0.0,61,0.00,,,0.00,WUHU21623XXSP,2013-04-03 11:04:00,
2013-04-03 07:09:00,28.2,16.5,0.00,North,0,0.0,0.0,61,0.00,,,0.00,WUHU21623XXSP,2013-04-03 11:09:00,
2013-04-03 07:14:00,28.2,16.9,0.00,North,0,0.0,0.0,62,0.00,,,0.00,WUHU21623XXSP,2013-04-03 11:14:00,
2013-04-03 07:19:00,28.0,16.3,0.00,North,0,0.0,0.0,61,0.00,,,0.00,WUHU21623XXSP,2013-04-03 11:19:00,
2013-04-03 07:24:00,28.2,16.9,0.00,North,0,0.0,0.0,62,0.00,,,0.00,WUHU21623XXSP,2013-04-03 11:24:00,
2013-04-03 07:29:00,28.2,16.9,0.00,North,0,0.0,0.0,62,0.00,,,0.00,WUHU21623XXSP,2013-04-03 11:29:00,
2013-04-03 07:34:00,28.2,16.9,0.00,North,0,0.0,0.0,62,0.00,,,0.00,WUHU21623XXSP,2013-04-03 11:34:00,
2013-04-03 07:39:00,28.6,17.2,0.00,North,0,0.0,0.0,62,0.00,,,0.00,WUHU21623XXSP,2013-04-03 11:39:00,
2013-04-03 07:44:00,28.6,17.2,0.00,North,0,0.0,0.0,62,0.00,,,0.00,WUHU21623XXSP,2013-04-03 11:44:00,
2013-04-03 07:49:00,28.6,17.2,0.00,North,0,0.0,0.0,62,0.00,,,0.00,WUHU21623XXSP,2013-04-03 11:49:00,
2013-04-03 07:54:00,28.8,17.7,0.00,North,0,0.0,0.0,63,0.00,,,0.00,WUHU21623XXSP,2013-04-03 11:54:00,
2013-04-03 07:59:00,28.9,17.9,0.00,North,0,0.0,0.0,63,0.00,,,0.00,WUHU21623XXSP,2013-04-03 11:59:00,
2013-04-03 08:04:00,29.1,18.1,0.00,North,0,0.0,0.0,63,0.00,,,0.00,WUHU21623XXSP,2013-04-03 12:04:00,
2013-04-03 08:09:00,29.5,18.2,0.00,North,0,0.0,0.0,63,0.00,,,0.00,WUHU21623XXSP,2013-04-03 12:09:00,
2013-04-03 08:14:00,29.8,18.7,0.00,North,0,0.0,0.0,63,0.00,,,0.00,WUHU21623XXSP,2013-04-03 12:14:00,
2013-04-03 08:19:00,30.0,18.9,0.00,North,0,0.0,0.0,63,0.00,,,0.00,WUHU21623XXSP,2013-04-03 12:19:00,
2013-04-03 08:24:00,30.6,19.8,0.00,North,0,0.0,0.0,64,0.00,,,0.00,WUHU21623XXSP,2013-04-03 12:24:00,
2013-04-03 08:29:00,30.9,20.1,0.00,North,0,0.0,0.0,64,0.00,,,0.00,WUHU21623XXSP,2013-04-03 12:29:00,
2013-04-03 08:34:00,31.6,20.3,0.00,North,0,0.0,0.0,65,0.00,,,0.00,WUHU21623XXSP,2013-04-03 12:34:00,
2013-04-03 08:39:00,32.7,22.2,0.00,North,0,0.0,0.0,65,0.00,,,0.00,WUHU21623XXSP,2013-04-03 12:39:00,
2013-04-03 08:44:00,33.4,23.2,0.00,North,0,0.0,0.0,66,0.00,,,0.00,WUHU21623XXSP,2013-04-03 12:44:00,
2013-04-03 08:49:00,34.3,24.1,0.00,North,0,0.0,0.0,66,0.00,,,0.00,WUHU21623XXSP,2013-04-03 12:49:00,
2013-04-03 08:54:00,35.4,24.8,0.00,North,0,0.0,0.0,65,0.00,,,0.00,WUHU21623XXSP,2013-04-03 12:54:00,
2013-04-03 08:59:00,36.1,24.8,0.00,North,0,0.0,0.0,65,0.00,,,0.00,WUHU21623XXSP,2013-04-03 12:59:00,
2013-04-03 09:04:00,36.7,25.7,0.00,North,0,0.0,0.0,64,0.00,,,0.00,WUHU21623XXSP,2013-04-03 13:04:00,
2013-04-03 09:09:00,37.9,26.4,0.00,North,0,0.0,0.0,63,0.00,,,0.00,WUHU21623XXSP,2013-04-03 13:09:00,
2013-04-03 09:14:00,38.8,26.4,0.00,North,0,0.0,0.0,61,0.00,,,0.00,WUHU21623XXSP,2013-04-03 13:14:00,
2013-04-03 09:19:00,39.4,26.1,0.00,North,0,0.0,0.0,59,0.00,,,0.00,WUHU21623XXSP,2013-04-03 13:19:00,
2013-04-03 09:24:00,40.3,25.7,0.00,North,0,0.0,0.0,56,0.00,,,0.00,WUHU21623XXSP,2013-04-03 13:24:00,
2013-04-03 09:29:00,40.8,25.8,0.00,North,0,0.0,0.0,55,0.00,,,0.00,WUHU21623XXSP,2013-04-03 13:29:00,
2013-04-03 09:34:00,41.5,25.9,0.00,North,0,0.0,0.0,54,0.00,,,0.00,WUHU21623XXSP,2013-04-03 13:34:00,
2013-04-03 09:39:00,42.1,25.7,0.00,North,0,0.0,0.0,52,0.00,,,0.00,WUHU21623XXSP,2013-04-03 13:39:00,
2013-04-03 09:44:00,42.6,25.3,0.00,North,0,0.0,0.0,50,0.00,,,0.00,WUHU21623XXSP,2013-04-03 13:44:00,
2013-04-03 09:49:00,43.0,25.1,0.00,North,0,0.0,0.0,49,0.00,,,0.00,WUHU21623XXSP,2013-04-03 13:49:00,
2013-04-03 09:54:00,43.5,24.4,0.00,North,0,0.0,0.0,47,0.00,,,0.00,WUHU21623XXSP,2013-04-03 13:54:00,
2013-04-03 09:59:00,44.1,24.7,0.00,North,0,0.0,0.0,46,0.00,,,0.00,WUHU21623XXSP,2013-04-03 13:59:00,
2013-04-03 10:04:00,44.8,24.8,0.00,North,0,0.0,0.0,47,0.00,,,0.00,WUHU21623XXSP,2013-04-03 14:04:00,
2013-04-03 10:09:00,45.5,24.7,0.00,North,0,0.0,0.0,44,0.00,,,0.00,WUHU21623XXSP,2013-04-03 14:09:00,
2013-04-03 10:14:00,46.0,24.7,0.00,North,0,0.0,0.0,43,0.00,,,0.00,WUHU21623XXSP,2013-04-03 14:14:00,
2013-04-03 10:19:00,46.6,25.7,0.00,North,0,0.0,0.0,44,0.00,,,0.00,WUHU21623XXSP,2013-04-03 14:19:00,
2013-04-03 10:24:00,47.1,25.6,0.00,North,0,0.0,0.0,43,0.00,,,0.00,WUHU21623XXSP,2013-04-03 14:24:00,
2013-04-03 10:29:00,47.8,25.7,0.00,North,0,0.0,0.0,42,0.00,,,0.00,WUHU21623XXSP,2013-04-03 14:29:00,
2013-04-03 10:34:00,48.2,25.9,0.00,North,0,0.0,0.0,41,0.00,,,0.00,WUHU21623XXSP,2013-04-03 14:34:00,
2013-04-03 10:39:00,48.7,26.0,0.00,North,0,0.0,0.0,41,0.00,,,0.00,WUHU21623XXSP,2013-04-03 14:39:00,
2013-04-03 10:44:00,48.9,26.2,0.00,North,0,0.0,0.0,41,0.00,,,0.00,WUHU21623XXSP,2013-04-03 14:44:00,
2013-04-03 10:49:00,49.3,26.3,0.00,North,0,0.0,0.0,41,0.00,,,0.00,WUHU21623XXSP,2013-04-03 14:49:00,
2013-04-03 10:54:00,49.8,26.4,0.00,North,0,0.0,0.0,40,0.00,,,0.00,WUHU21623XXSP,2013-04-03 14:54:00,
2013-04-03 10:59:00,49.8,25.8,0.00,North,0,0.0,0.0,39,0.00,,,0.00,WUHU21623XXSP,2013-04-03 14:59:00,
2013-04-03 11:04:00,50.2,26.1,0.00,North,0,0.0,0.0,39,0.00,,,0.00,WUHU21623XXSP,2013-04-03 15:04:00,
2013-04-03 11:09:00,50.4,25.6,0.00,North,0,0.0,0.0,38,0.00,,,0.00,WUHU21623XXSP,2013-04-03 15:09:00,
2013-04-03 11:14:00,50.4,24.2,0.00,North,0,0.0,0.0,36,0.00,,,0.00,WUHU21623XXSP,2013-04-03 15:14:00,
2013-04-03 11:19:00,50.4,24.2,0.00,North,0,0.0,0.0,36,0.00,,,0.00,WUHU21623XXSP,2013-04-03 15:19:00,
2013-04-03 11:24:00,50.5,24.4,0.00,North,0,0.0,0.0,36,0.00,,,0.00,WUHU21623XXSP,2013-04-03 15:24:00,
2013-04-03 11:29:00,50.4,24.2,0.00,North,0,0.0,0.0,36,0.00,,,0.00,WUHU21623XXSP,2013-04-03 15:29:00,
2013-04-03 11:34:00,50.4,23.5,0.00,North,0,0.0,0.0,35,0.00,,,0.00,WUHU21623XXSP,2013-04-03 15:34:00,
2013-04-03 11:40:00,50.5,23.7,0.00,North,0,0.0,0.0,35,0.00,,,0.00,WUHU21623XXSP,2013-04-03 15:40:00,
2013-04-03 11:45:00,50.7,23.8,0.00,North,0,0.0,0.0,35,0.00,,,0.00,WUHU21623XXSP,2013-04-03 15:45:00,
2013-04-03 11:50:00,51.1,24.2,0.00,North,0,0.0,0.0,35,0.00,,,0.00,WUHU21623XXSP,2013-04-03 15:50:00,
2013-04-03 11:55:00,51.6,24.5,0.00,North,0,0.0,0.0,35,0.00,,,0.00,WUHU21623XXSP,2013-04-03 15:55:00,
2013-04-03 12:00:00,52.0,24.8,0.00,North,0,0.0,0.0,35,0.00,,,0.00,WUHU21623XXSP,2013-04-03 16:00:00,
2013-04-03 12:05:00,52.5,24.8,0.00,North,0,0.0,0.0,34,0.00,,,0.00,WUHU21623XXSP,2013-04-03 16:05:00,
2013-04-03 12:10:00,52.7,24.9,0.00,North,0,0.0,0.0,34,0.00,,,0.00,WUHU21623XXSP,2013-04-03 16:10:00,
2013-04-03 12:15:00,52.9,25.1,0.00,North,0,0.0,0.0,34,0.00,,,0.00,WUHU21623XXSP,2013-04-03 16:15:00,
2013-04-03 12:20:00,53.4,25.6,0.00,North,0,0.0,0.0,34,0.00,,,0.00,WUHU21623XXSP,2013-04-03 16:20:00,
2013-04-03 12:25:00,53.8,25.9,0.00,North,0,0.0,0.0,34,0.00,,,0.00,WUHU21623XXSP,2013-04-03 16:25:00,
2013-04-03 12:30:00,54.0,26.0,0.00,North,0,0.0,0.0,34,0.00,,,0.00,WUHU21623XXSP,2013-04-03 16:30:00,
2013-04-03 12:35:00,54.3,25.6,0.00,North,0,0.0,0.0,33,0.00,,,0.00,WUHU21623XXSP,2013-04-03 16:35:00,
2013-04-03 12:40:00,54.5,25.8,0.00,North,0,0.0,0.0,33,0.00,,,0.00,WUHU21623XXSP,2013-04-03 16:40:00,
2013-04-03 12:45:00,54.7,25.9,0.00,North,0,0.0,0.0,33,0.00,,,0.00,WUHU21623XXSP,2013-04-03 16:45:00,
2013-04-03 12:50:00,55.2,26.4,0.00,North,0,0.0,0.0,32,0.00,,,0.00,WUHU21623XXSP,2013-04-03 16:50:00,
2013-04-03 12:55:00,55.6,26.0,0.00,North,0,0.0,0.0,31,0.00,,,0.00,WUHU21623XXSP,2013-04-03 16:55:00,
2013-04-03 13:00:00,55.6,26.0,0.00,North,0,0.0,0.0,32,0.00,,,0.00,WUHU21623XXSP,2013-04-03 17:00:00,
2013-04-03 13:05:00,55.8,25.5,0.00,North,0,0.0,0.0,31,0.00,,,0.00,WUHU21623XXSP,2013-04-03 17:05:00,
2013-04-03 13:10:00,55.6,25.3,0.00,North,0,0.0,0.0,31,0.00,,,0.00,WUHU21623XXSP,2013-04-03 17:10:00,
2013-04-03 13:15:00,56.1,26.3,0.00,North,0,0.0,0.0,31,0.00,,,0.00,WUHU21623XXSP,2013-04-03 17:15:00,
2013-04-03 13:20:00,56.5,26.1,0.00,North,0,0.0,0.0,31,0.00,,,0.00,WUHU21623XXSP,2013-04-03 17:20:00,
2013-04-03 13:25:00,57.0,26.3,0.00,North,0,0.0,0.0,31,0.00,,,0.00,WUHU21623XXSP,2013-04-03 17:25:00,
2013-04-03 13:30:00,57.4,26.9,0.00,North,0,0.0,0.0,31,0.00,,,0.00,WUHU21623XXSP,2013-04-03 17:30:00,
2013-04-03 13:35:00,57.4,26.9,0.00,North,0,0.0,0.0,31,0.00,,,0.00,WUHU21623XXSP,2013-04-03 17:35:00,
2013-04-03 13:40:00,57.6,26.4,0.00,North,0,0.0,0.0,30,0.00,,,0.00,WUHU21623XXSP,2013-04-03 17:40:00,
2013-04-03 13:45:00,57.6,26.4,0.00,North,0,0.0,0.0,30,0.00,,,0.00,WUHU21623XXSP,2013-04-03 17:45:00,
2013-04-03 13:50:00,57.4,25.6,0.00,North,0,0.0,0.0,29,0.00,,,0.00,WUHU21623XXSP,2013-04-03 17:50:00,
2013-04-03 13:55:00,57.2,25.1,0.00,North,0,0.0,0.0,29,0.00,,,0.00,WUHU21623XXSP,2013-04-03 17:55:00,
2013-04-03 14:00:00,57.4,26.2,0.00,North,0,0.0,0.0,30,0.00,,,0.00,WUHU21623XXSP,2013-04-03 18:00:00,
2013-04-03 14:05:00,57.7,26.5,0.00,North,0,0.0,0.0,30,0.00,,,0.00,WUHU21623XXSP,2013-04-03 18:05:00,
2013-04-03 14:10:00,57.7,25.6,0.00,North,0,0.0,0.0,29,0.00,,,0.00,WUHU21623XXSP,2013-04-03 18:10:00,
2013-04-03 14:15:00,57.9,25.7,0.00,North,0,0.0,0.0,29,0.00,,,0.00,WUHU21623XXSP,2013-04-03 18:15:00,
2013-04-03 14:20:00,58.3,27.0,0.00,North,0,0.0,0.0,30,0.00,,,0.00,WUHU21623XXSP,2013-04-03 18:20:00,
2013-04-03 14:25:00,58.5,26.2,0.00,North,0,0.0,0.0,29,0.00,,,0.00,WUHU21623XXSP,2013-04-03 18:25:00,
2013-04-03 14:30:00,58.3,26.1,0.00,North,0,0.0,0.0,29,0.00,,,0.00,WUHU21623XXSP,2013-04-03 18:30:00,
2013-04-03 14:35:00,58.5,26.2,0.00,North,0,0.0,0.0,29,0.00,,,0.00,WUHU21623XXSP,2013-04-03 18:35:00,
2013-04-03 14:40:00,58.5,26.2,0.00,North,0,0.0,0.0,29,0.00,,,0.00,WUHU21623XXSP,2013-04-03 18:40:00,
2013-04-03 14:45:00,58.8,25.6,0.00,North,0,0.0,0.0,28,0.00,,,0.00,WUHU21623XXSP,2013-04-03 18:45:00,
2013-04-03 14:50:00,58.8,25.6,0.00,North,0,0.0,0.0,28,0.00,,,0.00,WUHU21623XXSP,2013-04-03 18:50:00,
2013-04-03 14:55:00,58.6,25.4,0.00,North,0,0.0,0.0,28,0.00,,,0.00,WUHU21623XXSP,2013-04-03 18:55:00,
2013-04-03 15:00:00,58.8,25.6,0.00,North,0,0.0,0.0,28,0.00,,,0.00,WUHU21623XXSP,2013-04-03 19:00:00,
2013-04-03 15:05:00,58.8,25.6,0.00,North,0,0.0,0.0,28,0.00,,,0.00,WUHU21623XXSP,2013-04-03 19:05:00,
2013-04-03 15:10:00,58.8,25.6,0.00,North,0,0.0,0.0,28,0.00,,,0.00,WUHU21623XXSP,2013-04-03 19:10:00,
2013-04-03 15:15:00,59.5,26.2,0.00,North,0,0.0,0.0,28,0.00,,,0.00,WUHU21623XXSP,2013-04-03 19:15:00,
2013-04-03 15:21:00,59.7,26.3,0.00,North,0,0.0,0.0,28,0.00,,,0.00,WUHU21623XXSP,2013-04-03 19:21:00,
2013-04-03 15:26:00,59.9,25.5,0.00,North,0,0.0,0.0,27,0.00,,,0.00,WUHU21623XXSP,2013-04-03 19:26:00,
2013-04-03 15:31:00,59.7,25.4,0.00,North,0,0.0,0.0,27,0.00,,,0.00,WUHU21623XXSP,2013-04-03 19:31:00,
2013-04-03 15:36:00,59.9,26.5,0.00,North,0,0.0,0.0,28,0.00,,,0.00,WUHU21623XXSP,2013-04-03 19:36:00,
2013-04-03 15:41:00,59.7,25.4,0.00,North,0,0.0,0.0,27,0.00,,,0.00,WUHU21623XXSP,2013-04-03 19:41:00,
2013-04-03 15:46:00,59.7,26.3,0.00,North,0,0.0,0.0,28,0.00,,,0.00,WUHU21623XXSP,2013-04-03 19:46:00,
2013-04-03 15:51:00,59.7,25.4,0.00,North,0,0.0,0.0,27,0.00,,,0.00,WUHU21623XXSP,2013-04-03 19:51:00,
2013-04-03 15:57:00,59.7,26.3,0.00,North,0,0.0,0.0,28,0.00,,,0.00,WUHU21623XXSP,2013-04-03 19:57:00,
2013-04-03 16:02:00,59.9,26.5,0.00,North,0,0.0,0.0,28,0.00,,,0.00,WUHU21623XXSP,2013-04-03 20:02:00,
2013-04-03 16:07:00,60.4,26.0,0.00,North,0,0.0,0.0,27,0.00,,,0.00,WUHU21623XXSP,2013-04-03 20:07:00,
2013-04-03 16:12:00,60.4,26.0,0.00,North,0,0.0,0.0,27,0.00,,,0.00,WUHU21623XXSP,2013-04-03 20:12:00,
2013-04-03 16:17:00,60.4,26.0,0.00,North,0,0.0,0.0,27,0.00,,,0.00,WUHU21623XXSP,2013-04-03 20:17:00,
2013-04-03 16:22:00,60.6,25.1,0.00,North,0,0.0,0.0,26,0.00,,,0.00,WUHU21623XXSP,2013-04-03 20:22:00,
2013-04-03 16:27:00,60.4,26.0,0.00,North,0,0.0,0.0,27,0.00,,,0.00,WUHU21623XXSP,2013-04-03 20:27:00,
2013-04-03 16:32:00,60.4,25.0,0.00,North,0,0.0,0.0,26,0.00,,,0.00,WUHU21623XXSP,2013-04-03 20:32:00,
2013-04-03 16:37:00,60.4,26.0,0.00,North,0,0.0,0.0,27,0.00,,,0.00,WUHU21623XXSP,2013-04-03 20:37:00,
2013-04-03 16:42:00,60.3,25.8,0.00,North,0,0.0,0.0,27,0.00,,,0.00,WUHU21623XXSP,2013-04-03 20:42:00,
2013-04-03 16:47:00,60.1,25.6,0.00,North,0,0.0,0.0,27,0.00,,,0.00,WUHU21623XXSP,2013-04-03 20:47:00,
2013-04-03 16:52:00,60.1,25.6,0.00,North,0,0.0,0.0,27,0.00,,,0.00,WUHU21623XXSP,2013-04-03 20:52:00,
2013-04-03 16:57:00,59.9,24.5,0.00,North,0,0.0,0.0,26,0.00,,,0.00,WUHU21623XXSP,2013-04-03 20:57:00,
2013-04-03 17:02:00,59.7,24.4,0.00,North,0,0.0,0.0,26,0.00,,,0.00,WUHU21623XXSP,2013-04-03 21:02:00,
2013-04-03 17:07:00,59.7,24.4,0.00,North,0,0.0,0.0,26,0.00,,,0.00,WUHU21623XXSP,2013-04-03 21:07:00,
2013-04-03 17:12:00,59.7,24.4,0.00,North,0,0.0,0.0,26,0.00,,,0.00,WUHU21623XXSP,2013-04-03 21:12:00,
2013-04-03 17:17:00,59.7,24.4,0.00,North,0,0.0,0.0,26,0.00,,,0.00,WUHU21623XXSP,2013-04-03 21:17:00,
2013-04-03 17:22:00,59.5,24.4,0.00,North,0,0.0,0.0,26,0.00,,,0.00,WUHU21623XXSP,2013-04-03 21:22:00,
2013-04-03 17:27:00,59.4,24.1,0.00,North,0,0.0,0.0,26,0.00,,,0.00,WUHU21623XXSP,2013-04-03 21:27:00,
2013-04-03 17:32:00,58.8,23.6,0.00,North,0,0.0,0.0,26,0.00,,,0.00,WUHU21623XXSP,2013-04-03 21:32:00,
2013-04-03 17:37:00,58.8,23.6,0.00,North,0,0.0,0.0,26,0.00,,,0.00,WUHU21623XXSP,2013-04-03 21:37:00,
2013-04-03 17:42:00,58.8,22.7,0.00,North,0,0.0,0.0,25,0.00,,,0.00,WUHU21623XXSP,2013-04-03 21:42:00,
2013-04-03 17:47:00,58.8,22.7,0.00,North,0,0.0,0.0,25,0.00,,,0.00,WUHU21623XXSP,2013-04-03 21:47:00,
2013-04-03 17:52:00,58.8,22.7,0.00,North,0,0.0,0.0,25,0.00,,,0.00,WUHU21623XXSP,2013-04-03 21:52:00,
2013-04-03 17:57:00,58.8,22.7,0.00,North,0,0.0,0.0,25,0.00,,,0.00,WUHU21623XXSP,2013-04-03 21:57:00,
2013-04-03 18:02:00,58.8,22.7,0.00,North,0,0.0,0.0,25,0.00,,,0.00,WUHU21623XXSP,2013-04-03 22:02:00,
2013-04-03 18:07:00,58.5,22.4,0.00,North,0,0.0,0.0,25,0.00,,,0.00,WUHU21623XXSP,2013-04-03 22:07:00,
2013-04-03 18:12:00,57.9,21.9,0.00,North,0,0.0,0.0,25,0.00,,,0.00,WUHU21623XXSP,2013-04-03 22:12:00,
2013-04-03 18:17:00,57.4,21.4,0.00,North,0,0.0,0.0,25,0.00,,,0.00,WUHU21623XXSP,2013-04-03 22:17:00,
2013-04-03 18:22:00,57.0,21.1,0.00,North,0,0.0,0.0,25,0.00,,,0.00,WUHU21623XXSP,2013-04-03 22:22:00,
2013-04-03 18:27:00,56.8,21.0,0.00,North,0,0.0,0.0,25,0.00,,,0.00,WUHU21623XXSP,2013-04-03 22:27:00,
2013-04-03 18:32:00,56.5,20.7,0.00,North,0,0.0,0.0,25,0.00,,,0.00,WUHU21623XXSP,2013-04-03 22:32:00,
2013-04-03 18:37:00,56.1,20.4,0.00,North,0,0.0,0.0,25,0.00,,,0.00,WUHU21623XXSP,2013-04-03 22:37:00,
2013-04-03 18:42:00,55.8,20.1,0.00,North,0,0.0,0.0,25,0.00,,,0.00,WUHU21623XXSP,2013-04-03 22:42:00,
2013-04-03 18:47:00,55.4,19.8,0.00,North,0,0.0,0.0,25,0.00,,,0.00,WUHU21623XXSP,2013-04-03 22:47:00,
2013-04-03 18:52:00,55.2,19.6,0.00,North,0,0.0,0.0,25,0.00,,,0.00,WUHU21623XXSP,2013-04-03 22:52:00,
2013-04-03 18:57:00,54.7,19.1,0.00,North,0,0.0,0.0,25,0.00,,,0.00,WUHU21623XXSP,2013-04-03 22:57:00,
2013-04-03 19:02:00,54.5,19.0,0.00,North,0,0.0,0.0,25,0.00,,,0.00,WUHU21623XXSP,2013-04-03 23:02:00,
2013-04-03 19:07:00,54.3,18.8,0.00,North,0,0.0,0.0,25,0.00,,,0.00,WUHU21623XXSP,2013-04-03 23:07:00,
2013-04-03 19:12:00,53.8,18.4,0.00,North,0,0.0,0.0,25,0.00,,,0.00,WUHU21623XXSP,2013-04-03 23:12:00,
2013-04-03 19:17:00,53.8,19.3,0.00,North,0,0.0,0.0,26,0.00,,,0.00,WUHU21623XXSP,2013-04-03 23:17:00,
2013-04-03 19:22:00,53.4,19.0,0.00,North,0,0.0,0.0,26,0.00,,,0.00,WUHU21623XXSP,2013-04-03 23:22:00,
2013-04-03 19:27:00,53.2,18.9,0.00,North,0,0.0,0.0,26,0.00,,,0.00,WUHU21623XXSP,2013-04-03 23:27:00,
2013-04-03 19:32:00,52.9,18.6,0.00,North,0,0.0,0.0,26,0.00,,,0.00,WUHU21623XXSP,2013-04-03 23:32:00,
2013-04-03 19:37:00,52.5,18.4,0.00,North,0,0.0,0.0,26,0.00,,,0.00,WUHU21623XXSP,2013-04-03 23:37:00,
2013-04-03 19:42:00,52.2,17.9,0.00,North,0,0.0,0.0,26,0.00,,,0.00,WUHU21623XXSP,2013-04-03 23:42:00,
2013-04-03 19:47:00,52.0,17.8,0.00,North,0,0.0,0.0,26,0.00,,,0.00,WUHU21623XXSP,2013-04-03 23:47:00,
2013-04-03 19:52:00,51.6,18.4,0.00,North,0,0.0,0.0,27,0.00,,,0.00,WUHU21623XXSP,2013-04-03 23:52:00,
2013-04-03 19:57:00,51.3,18.2,0.00,North,0,0.0,0.0,27,0.00,,,0.00,WUHU21623XXSP,2013-04-03 23:57:00,
2013-04-03 20:02:00,51.1,17.9,0.00,North,0,0.0,0.0,27,0.00,,,0.00,WUHU21623XXSP,2013-04-04 00:02:00,
2013-04-03 20:07:00,50.7,17.8,0.00,North,0,0.0,0.0,28,0.00,,,0.00,WUHU21623XXSP,2013-04-04 00:07:00,
2013-04-03 20:12:00,50.4,18.2,0.00,North,0,0.0,0.0,28,0.00,,,0.00,WUHU21623XXSP,2013-04-04 00:12:00,
2013-04-03 20:17:00,50.2,18.1,0.00,North,0,0.0,0.0,28,0.00,,,0.00,WUHU21623XXSP,2013-04-04 00:17:00,
2013-04-03 20:22:00,50.0,17.9,0.00,North,0,0.0,0.0,28,0.00,,,0.00,WUHU21623XXSP,2013-04-04 00:22:00,
2013-04-03 20:27:00,49.6,17.6,0.00,North,0,0.0,0.0,28,0.00,,,0.00,WUHU21623XXSP,2013-04-04 00:27:00,
2013-04-03 20:33:00,49.6,17.6,0.00,North,0,0.0,0.0,28,0.00,,,0.00,WUHU21623XXSP,2013-04-04 00:33:00,
2013-04-03 20:38:00,49.3,17.3,0.00,North,0,0.0,0.0,28,0.00,,,0.00,WUHU21623XXSP,2013-04-04 00:38:00,
2013-04-03 20:43:00,49.1,17.2,0.00,North,0,0.0,0.0,28,0.00,,,0.00,WUHU21623XXSP,2013-04-04 00:43:00,
2013-04-03 20:48:00,48.9,17.0,0.00,North,0,0.0,0.0,28,0.00,,,0.00,WUHU21623XXSP,2013-04-04 00:48:00,
2013-04-03 20:53:00,48.7,17.8,0.00,North,0,0.0,0.0,29,0.00,,,0.00,WUHU21623XXSP,2013-04-04 00:53:00,
2013-04-03 20:58:00,48.6,17.7,0.00,North,0,0.0,0.0,29,0.00,,,0.00,WUHU21623XXSP,2013-04-04 00:58:00,
2013-04-03 21:03:00,48.4,17.5,0.00,North,0,0.0,0.0,29,0.00,,,0.00,WUHU21623XXSP,2013-04-04 01:03:00,
2013-04-03 21:08:00,48.0,17.2,0.00,North,0,0.0,0.0,29,0.00,,,0.00,WUHU21623XXSP,2013-04-04 01:08:00,
2013-04-03 21:13:00,47.8,18.0,0.00,North,0,0.0,0.0,30,0.00,,,0.00,WUHU21623XXSP,2013-04-04 01:13:00,
2013-04-03 21:18:00,47.7,17.8,0.00,North,0,0.0,0.0,30,0.00,,,0.00,WUHU21623XXSP,2013-04-04 01:18:00,
2013-04-03 21:23:00,47.3,18.2,0.00,North,0,0.0,0.0,31,0.00,,,0.00,WUHU21623XXSP,2013-04-04 01:23:00,
2013-04-03 21:28:00,47.1,18.0,0.00,North,0,0.0,0.0,31,0.00,,,0.00,WUHU21623XXSP,2013-04-04 01:28:00,
2013-04-03 21:33:00,46.8,17.9,0.00,North,0,0.0,0.0,31,0.00,,,0.00,WUHU21623XXSP,2013-04-04 01:33:00,
2013-04-03 21:38:00,46.6,18.2,0.00,North,0,0.0,0.0,32,0.00,,,0.00,WUHU21623XXSP,2013-04-04 01:38:00,
2013-04-03 21:43:00,46.2,17.9,0.00,North,0,0.0,0.0,32,0.00,,,0.00,WUHU21623XXSP,2013-04-04 01:43:00,
2013-04-03 21:48:00,46.0,17.7,0.00,North,0,0.0,0.0,32,0.00,,,0.00,WUHU21623XXSP,2013-04-04 01:48:00,
2013-04-03 21:53:00,45.9,17.5,0.00,North,0,0.0,0.0,32,0.00,,,0.00,WUHU21623XXSP,2013-04-04 01:53:00,
2013-04-03 21:58:00,45.7,18.0,0.00,North,0,0.0,0.0,33,0.00,,,0.00,WUHU21623XXSP,2013-04-04 01:58:00,
2013-04-03 22:03:00,45.5,17.9,0.00,North,0,0.0,0.0,33,0.00,,,0.00,WUHU21623XXSP,2013-04-04 02:03:00,
2013-04-03 22:08:00,45.1,17.6,0.00,North,0,0.0,0.0,33,0.00,,,0.00,WUHU21623XXSP,2013-04-04 02:08:00,
2013-04-03 22:13:00,45.0,18.1,0.00,North,0,0.0,0.0,34,0.00,,,0.00,WUHU21623XXSP,2013-04-04 02:13:00,
2013-04-03 22:18:00,44.8,17.9,0.00,North,0,0.0,0.0,34,0.00,,,0.00,WUHU21623XXSP,2013-04-04 02:18:00,
2013-04-03 22:23:00,44.4,17.6,0.00,North,0,0.0,0.0,34,0.00,,,0.00,WUHU21623XXSP,2013-04-04 02:23:00,
2013-04-03 22:28:00,44.2,17.4,0.00,North,0,0.0,0.0,34,0.00,,,0.00,WUHU21623XXSP,2013-04-04 02:28:00,
2013-04-03 22:33:00,43.9,17.1,0.00,North,0,0.0,0.0,34,0.00,,,0.00,WUHU21623XXSP,2013-04-04 02:33:00,
2013-04-03 22:38:00,43.5,17.4,0.00,North,0,0.0,0.0,35,0.00,,,0.00,WUHU21623XXSP,2013-04-04 02:38:00,
2013-04-03 22:43:00,43.5,17.4,0.00,North,0,0.0,0.0,35,0.00,,,0.00,WUHU21623XXSP,2013-04-04 02:43:00,
2013-04-03 22:48:00,43.0,17.6,0.00,North,0,0.0,0.0,36,0.00,,,0.00,WUHU21623XXSP,2013-04-04 02:48:00,
2013-04-03 22:53:00,42.6,17.3,0.00,North,0,0.0,0.0,36,0.00,,,0.00,WUHU21623XXSP,2013-04-04 02:53:00,
2013-04-03 22:58:00,42.4,17.1,0.00,North,0,0.0,0.0,36,0.00,,,0.00,WUHU21623XXSP,2013-04-04 02:58:00,
2013-04-03 23:03:00,42.3,17.6,0.00,North,0,0.0,0.0,37,0.00,,,0.00,WUHU21623XXSP,2013-04-04 03:03:00,
2013-04-03 23:08:00,41.9,16.7,0.00,North,0,0.0,0.0,36,0.00,,,0.00,WUHU21623XXSP,2013-04-04 03:08:00,
2013-04-03 23:13:00,41.7,16.5,0.00,North,0,0.0,0.0,36,0.00,,,0.00,WUHU21623XXSP,2013-04-04 03:13:00,
2013-04-03 23:18:00,41.7,16.5,0.00,North,0,0.0,0.0,36,0.00,,,0.00,WUHU21623XXSP,2013-04-04 03:18:00,
2013-04-03 23:23:00,41.5,16.4,0.00,North,0,0.0,0.0,36,0.00,,,0.00,WUHU21623XXSP,2013-04-04 03:23:00,
2013-04-03 23:28:00,41.5,16.4,0.00,North,0,0.0,0.0,36,0.00,,,0.00,WUHU21623XXSP,2013-04-04 03:28:00,
2013-04-03 23:33:00,41.4,16.2,0.00,North,0,0.0,0.0,36,0.00,,,0.00,WUHU21623XXSP,2013-04-04 03:33:00,
2013-04-03 23:38:00,41.2,16.7,0.00,North,0,0.0,0.0,37,0.00,,,0.00,WUHU21623XXSP,2013-04-04 03:38:00,
2013-04-03 23:43:00,41.0,16.6,0.00,North,0,0.0,0.0,37,0.00,,,0.00,WUHU21623XXSP,2013-04-04 03:43:00,
2013-04-03 23:48:00,40.8,16.4,0.00,North,0,0.0,0.0,37,0.00,,,0.00,WUHU21623XXSP,2013-04-04 03:48:00,
2013-04-03 23:53:00,40.6,16.2,0.00,North,0,0.0,0.0,37,0.00,,,0.00,WUHU21623XXSP,2013-04-04 03:53:00,
2013-04-03 23:58:00,40.5,16.1,0.00,North,0,0.0,0.0,37,0.00,,,0.00,WUHU21623XXSP,2013-04-04 03:58:00,